Location: Coffee Creek Observatory
(38.8077°N, 94.7179°W)
Time: 14:34:09
(UTC-05:00)

Daily predictions for brighter satellites

Satellite Brightness Start Highest point End
(mag) Time Altitude Azimuth Time Altitude Azimuth Time Altitude Azimuth
SeaSat 1 3.8 20:54:25 10° ESE 20:58:25 26° NE 21:02:27 10° N
Hubble Space Telescope 3.2 21:01:03 10° SSW 21:01:34 10° SSW 21:02:04 10° SSW
Cosmos 2251 Rocket 3.7 20:57:56 10° S 21:03:05 56° ESE 21:08:19 10° NNE
RESURS DK-1 4.3 20:59:32 10° NW 21:03:06 28° WSW 21:06:38 10° SSW
Cosmos 1025 Rocket 3.1 21:00:34 10° S 21:04:54 64° E 21:09:16 10° NNE
Cosmos 1892 Rocket 4.0 21:00:47 10° SSE 21:04:56 42° E 21:09:10 10° NNE
FENGYUN 3A 3.7 20:59:36 10° SSE 21:04:57 85° ENE 21:10:22 10° NNW
BREEZE-M DEB (TANK) 3.3 21:08:14 10° NW 21:11:04 30° NNE 21:13:01 10° E
Atlas Centaur 2 4.0 21:06:29 10° SSW 21:12:24 24° SSE 21:18:49 10° ESE
OTV 4 2.2 21:10:40 10° WSW 21:13:00 21° SSW 21:15:21 10° SSE
ALOS 2.6 21:09:51 10° S 21:14:30 71° WSW 21:19:11 10° NNW
Meteor 2-17 Rocket 4.5 21:09:09 10° N 21:15:19 74° E 21:21:27 10° SSE
COSMOS 2455 4.4 21:14:16 10° SE 21:17:27 15° ESE 21:20:38 10° ENE
Cosmos 2237 Rocket 2.9 21:13:41 10° SW 21:19:13 59° WNW 21:24:48 10° NNE
Envisat 3.7 21:16:56 10° SE 21:21:35 37° ENE 21:26:14 10° N
ERS-1 Rocket 3.0 21:18:07 10° SSE 21:23:07 77° ENE 21:28:08 10° N
Cosmos 1110 Rocket 4.1 21:18:15 10° NNW 21:23:32 64° ENE 21:28:42 10° SSE
Cosmos 1939 Rocket 3.5 21:19:36 10° SE 21:23:32 43° ENE 21:27:30 10° N
Cosmos 2285 Rocket 4.3 21:17:40 10° N 21:23:50 52° ENE 21:29:39 12° SE
Cosmos 2278 Rocket 2.6 21:22:17 10° NNW 21:27:54 63° WSW 21:33:28 10° S
SL-24 R/B - RUBIN 2 4.3 21:25:41 10° SSW 21:30:59 83° WNW 21:37:04 10° NNE
Cosmos 2233 Rocket 4.5 21:25:45 10° NNW 21:31:56 63° W 21:38:01 10° S
Cosmos 1726 Rocket 3.6 21:27:37 10° N 21:32:06 86° E 21:36:31 10° S
PSLV R/B 4.3 21:30:19 16° SE 21:32:10 28° ENE 21:34:54 10° N
USA 234 3.8 21:27:51 10° ESE 21:34:08 51° NE 21:40:26 10° NW
Gbstr 26 Del rocket 4.5 21:30:16 10° NW 21:37:38 88° NE 21:44:30 16° SE
Lacrosse 5 rocket 2.2 21:35:06 10° WSW 21:38:50 51° NW 21:42:48 10° NE
Cosmos 1464 Rocket 4.0 21:33:00 10° N 21:39:06 67° E 21:45:12 10° SSE
Cosmos 2058 Rocket 3.0 21:36:10 10° N 21:40:35 80° E 21:44:45 11° S
Cosmos 2369 Rocket 4.3 21:39:45 10° NNE 21:42:21 13° NE 21:44:55 10° ENE
OAO 3 Copernicus 4.5 21:40:14 10° W 21:45:10 56° S 21:48:52 17° ESE
SL-16 R/B 2.3 21:39:48 10° SSW 21:45:27 81° WNW 21:51:09 10° NNE
Abrixas rocket 3.4 21:43:15 10° NW 21:46:29 38° NNE 21:48:53 16° E
Cosmos 1666 2.9 21:42:53 10° N 21:46:44 55° E 21:49:17 19° SSE
Aureole 2 Rocket 2.7 21:44:03 10° S 21:48:03 59° ESE 21:51:44 10° NNE
deb Chang Zheng 4 4.2 21:43:50 10° N 21:48:11 61° WNW 21:52:29 10° SSW
Cosmos 1602 Rocket 3.9 21:45:02 14° SSE 21:48:43 46° E 21:53:01 10° NNE
Okean 2 3.5 21:44:48 10° S 21:48:59 84° W 21:53:11 10° N
ARGOS 4.3 21:48:12 17° ESE 21:51:22 29° ENE 21:55:57 10° N
H-2A R/B 4.0 21:50:30 10° E 21:52:46 13° ENE 21:55:03 10° NNE
Meteor 1-23 Rocket 4.4 21:48:53 10° SSW 21:54:30 77° W 22:00:14 10° N
Cosmos 1743 4.0 21:52:16 10° NNW 21:55:53 39° W 21:59:27 10° SSW
Cosmos 2034 Rocket 4.0 21:49:59 10° N 21:56:22 69° E 22:01:31 16° SSE
UNK 4.2 21:52:59 10° NNE 21:58:20 62° ESE 22:03:56 10° S
Cosmos 494 Rocket 4.3 21:53:52 10° SSW 21:58:56 69° WNW 22:04:03 10° NNE
Cosmos 1812 Rocket 4.2 21:56:17 10° N 22:00:22 37° ENE 22:02:13 25° SE
SPOT 1/Viking Rocket 4.1 21:57:45 21° SE 22:00:42 42° ENE 22:05:33 10° N
NAVSTAR 52 R/B(PAM-D 4.4 21:56:35 10° W 22:01:09 89° NNE 22:02:57 24° E
Cosmos 1461 3.8 21:57:41 10° NNW 22:01:44 38° NE 22:03:39 24° ESE
PSLV R/B 3.8 22:04:00 10° SW 22:07:20 39° SSE 22:07:53 36° SE
CZ-2C R/B 3.8 22:07:57 10° WSW 22:08:24 10° W 22:08:51 10° W
H-2A R/B 3.5 22:08:48 10° SSW 22:12:37 33° W 22:16:33 10° NNW
MetOp-B 4.1 22:10:02 23° SSE 22:13:28 79° ENE 22:18:51 10° N
Cosmos 1603 3.6 22:08:34 10° S 22:14:07 67° ESE 22:19:42 10° NNE
Cosmos 1515 4.4 22:13:48 32° ESE 22:14:20 34° E 22:17:51 10° NNE
DEBRIS 2.0 22:09:58 10° NW 22:14:33 85° SW 22:15:02 54° SE
CZ-4 R/B 4.2 22:11:16 10° NNE 22:16:05 49° E 22:18:29 27° SSE
Geosat 4.3 22:12:30 10° NE 22:17:20 45° ESE 22:19:56 25° S
Milstar 3 Cent rocket 3.7 22:13:58 10° WSW 22:18:23 19° SSW 22:19:50 17° S
SPOT 5 3.0 22:17:33 21° S 22:20:27 62° WSW 22:24:47 10° NNW
Cosmos 1626 Rocket 3.8 22:18:55 14° SSW 22:22:40 72° W 22:27:06 10° N
Cosmos 1302 Rocket 4.3 22:23:45 10° NNW 22:28:55 63° WSW 22:31:50 26° S
APEX 4.1 22:31:38 10° NW 22:35:40 54° WSW 22:37:53 30° S
SeaSat 1 3.3 22:32:58 22° S 22:35:43 42° WSW 22:40:25 10° NW
Landsat 7 4.4 22:35:43 36° ESE 22:36:55 43° ENE 22:41:26 10° N
Cosmos 1953 Rocket 4.2 22:38:28 37° E 22:38:34 37° E 22:42:38 10° NNE
CZ-4B R/B 3.8 22:34:44 10° N 22:39:45 67° WNW 22:44:18 13° SSW
Meteor 2-12 Rocket 4.3 22:33:41 10° N 22:39:49 83° E 22:42:44 33° SSE
Cosmos 1943 3.5 22:39:29 38° SE 22:40:48 44° ESE 22:46:11 10° NE
DELTA 2 DEB (DPAF) 4.3 22:40:32 46° SE 22:41:33 59° ENE 22:45:59 10° N
Cosmos 2346 Rocket 4.4 22:41:46 33° SSE 22:44:36 66° E 22:50:42 10° NNE
YAOGAN 6 3.3 22:47:30 41° SW 22:48:20 50° W 22:51:59 10° NNW
Terra 2.3 22:51:59 40° E 22:52:43 44° ENE 22:57:13 10° N
CZ-4C R/B 3.4 22:53:47 64° SSE 22:54:25 83° ENE 22:58:37 10° N
Cosmos 1943 Rocket 3.9 22:55:09 10° N 22:59:11 20° NE 23:01:00 17° E
Atlas Centaur 2 3.4 22:53:47 10° SW 23:01:22 43° SSE 23:03:19 38° SE
SL-08 RB Rocket 3.8 23:01:19 54° SSW 23:02:16 72° WSW 23:06:49 10° NNW
COSMOS 2455 2.9 22:56:36 10° SSW 23:02:36 77° WNW 23:08:39 10° NNE
Cosmos 407 Rocket 3.6 23:05:15 51° ESE 23:05:25 51° ESE 23:10:30 10° NNE
IGS 5A 3.8 23:06:01 51° ENE 23:06:01 51° ENE 23:09:57 10° N
USA 81 4.1 23:01:56 10° N 23:07:14 75° W 23:08:46 46° SSW
Cosmos-2242 4.3 23:05:17 10° NNE 23:08:43 28° ENE 23:08:43 28° ENE
ATLAS 3B R/B 2.9 23:05:15 31° S 23:09:09 62° ESE 23:16:37 10° NE
Cosmos 1758 Rocket 3.5 23:13:15 74° ENE 23:13:15 74° ENE 23:17:30 10° N
USA 234 3.7 23:15:11 37° S 23:17:07 46° SW 23:23:23 10° WNW
CARTOSAT-1 3.4 23:17:46 86° ENE 23:17:46 86° ENE 23:22:05 10° NNW
Cosmos 1953 4.0 23:14:35 10° NNE 23:17:03 24° NE 23:17:03 24° NE
SAR-Lupe-2 4.3 23:21:29 52° NW 23:21:29 52° NW 23:24:21 10° NNW
Lacrosse 4 Rocket 2.6 23:26:58 32° NE 23:26:58 32° NE 23:29:16 10° NNE
Cosmos 2369 Rocket 2.0 23:21:33 10° NNW 23:27:15 84° ENE 23:28:01 68° SE
SL-24 R/B 4.3 23:22:55 10° N 23:27:49 86° W 23:28:21 71° SSW
ARGOS 4.3 23:29:43 29° SW 23:31:26 35° W 23:36:23 10° NNW
H-2A R/B 1.9 23:31:07 66° SW 23:31:32 70° WSW 23:36:32 10° NNW
Meteor 1-22 Rocket 4.4 23:31:08 10° NNW 23:36:37 65° W 23:37:37 55° SW
USA 238 DEB 4.3 23:39:28 40° ESE 23:39:28 40° ESE 23:45:23 10° NE
USA 238 4.3 23:39:36 39° E 23:39:36 39° E 23:45:27 10° NE
Nadezhda 4 Rocket 4.1 23:42:14 56° ESE 23:42:44 57° E 23:48:55 10° NNE
COSMOS 2406 4.2 23:44:14 33° ENE 23:44:14 33° ENE 23:48:12 10° NE
Cosmos 1346 Rocket 4.1 23:45:39 34° WNW 23:45:39 34° WNW 23:49:06 10° N
Cosmos 2263 4.0 23:40:45 10° NNW 23:46:23 87° ENE 23:46:42 81° SE
DMSP B5D2-2 4.5 23:41:39 10° N 23:46:51 59° WNW 23:47:56 49° WSW
